Voltar ao catálogo

STARLINK-3542

AtivoComunicaçõesVLEO
NORAD 51852·PAYLOAD·🇺🇸 United States

Lançado Mar 3, 2022 de Cape Canaveral Space Force Station

Loading…

Próximas Passagens (próximas 24 horas)

TLE

AtualizadoSource: CelesTrak SupGP

Época: Sep 14, 2026, 20:49 UTC

1 51852C 22022A   26257.86784722  .00047107  00000+0  13907-2 0  2572
2 51852  53.1572 235.7007 0001395  95.7254 187.5126 15.34390832    19

Acompanhe STARLINK-3542 em tempo real com AllMySat

Download on the App Store